Regional Weather Roundup
Issued by NWS

Home | Current Version | Previous Version | Graphics & Text | Print | Product List | Glossary On
Versions: 1 2 3 4 5 6 7 8 9 10 11 12 13 14 15 16 17 18 19 20 21 22 23 24 25 26 27 28 29 30 31 32 33 34 35 36 37 38 39 40 41 42 43 44 45 46 47 48 49 50
000
ASUS43 KBIS 251010
RWRND
NORTH DAKOTA REGIONAL WEATHER ROUNDUP
NATIONAL WEATHER SERVICE EASTERN NORTH DAKOTA/GRAND FORKS ND
500 AM CDT FRI MAY 25 2018

  NOTE: "FAIR" INDICATES FEW OR NO CLOUDS BELOW 12,000 FEET WITH NO
  SIGNIFICANT WEATHER AND/OR OBSTRUCTIONS TO VISIBILITY.

NDZ001>003-009>011-017-251100-
...NORTHWEST NORTH DAKOTA...

CITY           SKY/WX    TMP DP  RH WIND       PRES   REMARKS
WILLISTON      FAIR      59  56  89 SW8       29.74S
MINOT          FAIR      64  54  69 SW10      29.71S
MINOT AFB      FAIR      61  53  74 W10       29.69S
$$

NDZ018>021-031>035-040>046-251100-
...SOUTHWEST NORTH DAKOTA...

CITY           SKY/WX    TMP DP  RH WIND       PRES   REMARKS
BISMARCK       FAIR      62  55  77 SW5       29.78S
DICKINSON      FAIR      59  53  80 SW7       29.81S
GARRISON         N/A     58  53  84 W8        29.74S
HETTINGER      FAIR      54  49  83 NW5       29.86F
$$

NDZ004>008-012>016-024-026-027-054-251100-
...NORTHEAST NORTH DAKOTA...

CITY           SKY/WX    TMP DP  RH WIND       PRES   REMARKS
GRAND FORKS    FAIR      59  54  83 SW7       29.67R
GRAND FORKS AF FAIR      60  54  78 W7        29.68R
DEVILS LAKE    FAIR      63  56  78 SW8       29.71F
$$

NDZ022-023-025-028>030-036>039-047>053-251100-
...SOUTHEAST NORTH DAKOTA...

CITY           SKY/WX    TMP DP  RH WIND       PRES   REMARKS
JAMESTOWN      FAIR      62  56  80 SW7       29.74S
FARGO          FAIR      62  56  80 SW5       29.71S
WAHPETON       FAIR      63  55  77 SW9       29.74S
$$



USA.gov is the U.S. government's official web portal to all federal, state and local government web resources and services.